• En España
  • Lista de países
  • Para 7 días
  • Temperatura del agua
  • Mapa Satelital
  • El tiempo en el mapa
  • Informadores
  • user-avatar
    Iniciar sesión

    Tiempo cada hora Zaseka

    Hoy, 21 Julio, Sábado

    Tiempo Temperatura Precipitaciones Viento Presión Humedad
    00:00 +19°C° 0 mm 3 mps 742 mmHg 95%
    01:00 +19°C° 0 mm 3 mps 742 mmHg 96%
    02:00 +19°C° 0 mm 2 mps 742 mmHg 98%
    03:00 +19°C° 0,1 mm 3 mps 742 mmHg 97%
    04:00 +19°C° 0,1 mm 3 mps 743 mmHg 97%
    05:00 +19°C° 0,1 mm 3 mps 743 mmHg 97%
    06:00 +20°C° 0,2 mm 3 mps 743 mmHg 95%
    07:00 +21°C° 0,2 mm 3 mps 743 mmHg 93%
    08:00 +22°C° 0,2 mm 3 mps 743 mmHg 91%
    09:00 +22°C° 0,2 mm 3 mps 743 mmHg 88%
    10:00 +24°C° 0,2 mm 3 mps 743 mmHg 84%
    11:00 +25°C° 0,2 mm 4 mps 743 mmHg 81%
    12:00 +26°C° 0,5 mm 4 mps 743 mmHg 79%
    13:00 +26°C° 0,5 mm 4 mps 744 mmHg 78%
    14:00 +27°C° 0,5 mm 4 mps 744 mmHg 76%
    15:00 +26°C° 0,6 mm 3 mps 744 mmHg 79%
    16:00 +26°C° 0,6 mm 3 mps 744 mmHg 81%
    17:00 +26°C° 0,6 mm 3 mps 744 mmHg 83%
    18:00 +25°C° 0,7 mm 3 mps 744 mmHg 87%
    19:00 +24°C° 0,7 mm 3 mps 744 mmHg 90%
    20:00 +23°C° 0,7 mm 2 mps 744 mmHg 94%
    21:00 +21°C° 0,9 mm 2 mps 744 mmHg 95%
    22:00 +21°C° 0,9 mm 2 mps 744 mmHg 96%
    23:00 +20°C° 0,9 mm 2 mps 744 mmHg 97%

    Mañana, 22 Julio, Domingo

    Tiempo Temperatura Precipitaciones Viento Presión Humedad
    00:00 +20°C° 0,1 mm 2 mps 745 mmHg 97%
    01:00 +20°C° 0,1 mm 2 mps 745 mmHg 97%
    02:00 +19°C° 0,1 mm 2 mps 745 mmHg 98%
    03:00 +19°C° 0 mm 3 mps 745 mmHg 98%
    04:00 +19°C° 0 mm 3 mps 745 mmHg 98%
    05:00 +19°C° 0 mm 3 mps 745 mmHg 98%
    06:00 +19°C° 0,1 mm 3 mps 745 mmHg 97%
    07:00 +19°C° 0,1 mm 3 mps 746 mmHg 95%
    08:00 +19°C° 0,1 mm 3 mps 746 mmHg 94%
    09:00 +20°C° 0 mm 3 mps 746 mmHg 92%
    10:00 +20°C° 0 mm 3 mps 746 mmHg 91%
    11:00 +21°C° 0 mm 3 mps 746 mmHg 89%
    12:00 +21°C° 0,1 mm 3 mps 746 mmHg 88%
    13:00 +21°C° 0,1 mm 3 mps 746 mmHg 87%
    14:00 +21°C° 0,1 mm 3 mps 746 mmHg 86%
    15:00 +21°C° 0 mm 3 mps 746 mmHg 85%
    16:00 +21°C° 0 mm 3 mps 746 mmHg 84%
    17:00 +21°C° 0 mm 2 mps 746 mmHg 83%
    18:00 +21°C° 0 mm 2 mps 746 mmHg 87%
    19:00 +20°C° 0 mm 2 mps 746 mmHg 90%
    20:00 +20°C° 0 mm 1 mps 746 mmHg 94%
    21:00 +19°C° 0 mm 2 mps 746 mmHg 95%
    22:00 +19°C° 0 mm 2 mps 746 mmHg 95%
    23:00 +18°C° 0 mm 2 mps 747 mmHg 96%

    Pasado mañana, 23 Julio, Lunes

    Tiempo Temperatura Precipitaciones Viento Presión Humedad
    00:00 +18°C° 0 mm 2 mps 747 mmHg 97%
    01:00 +17°C° 0 mm 2 mps 747 mmHg 97%
    02:00 +17°C° 0 mm 2 mps 747 mmHg 98%
    03:00 +17°C° 0 mm 2 mps 747 mmHg 97%
    04:00 +17°C° 0 mm 2 mps 747 mmHg 97%
    05:00 +17°C° 0 mm 2 mps 747 mmHg 96%
    06:00 +18°C° 0 mm 3 mps 747 mmHg 90%
    07:00 +19°C° 0 mm 3 mps 748 mmHg 83%
    08:00 +21°C° 0 mm 3 mps 748 mmHg 77%
    09:00 +22°C° 0 mm 4 mps 748 mmHg 72%
    10:00 +23°C° 0 mm 4 mps 748 mmHg 66%
    11:00 +25°C° 0 mm 4 mps 748 mmHg 61%
    12:00 +25°C° 0,1 mm 4 mps 747 mmHg 63%
    13:00 +25°C° 0,1 mm 4 mps 747 mmHg 65%
    14:00 +23°C° 0,1 mm 4 mps 747 mmHg 67%
    15:00 +23°C° 0,1 mm 4 mps 747 mmHg 69%
    16:00 +22°C° 0,1 mm 4 mps 747 mmHg 72%
    17:00 +22°C° 0,1 mm 4 mps 747 mmHg 74%
    18:00 +21°C° 0 mm 3 mps 748 mmHg 78%
    19:00 +20°C° 0 mm 3 mps 748 mmHg 81%
    20:00 +19°C° 0 mm 2 mps 748 mmHg 85%
    21:00 +18°C° 0 mm 2 mps 748 mmHg 87%
    22:00 +17°C° 0 mm 2 mps 748 mmHg 89%
    23:00 +16°C° 0 mm 2 mps 748 mmHg 90%

    24 Julio, Martes

    Tiempo Temperatura Precipitaciones Viento Presión Humedad
    00:00 +16°C° 0 mm 2 mps 748 mmHg 90%
    01:00 +16°C° 0 mm 2 mps 748 mmHg 90%
    02:00 +14°C° 0 mm 3 mps 748 mmHg 90%
    03:00 +14°C° 0,1 mm 3 mps 748 mmHg 90%
    04:00 +14°C° 0,1 mm 3 mps 748 mmHg 91%
    05:00 +14°C° 0,1 mm 3 mps 748 mmHg 91%
    06:00 +16°C° 0,9 mm 3 mps 748 mmHg 93%
    07:00 +16°C° 0,9 mm 3 mps 748 mmHg 94%
    08:00 +16°C° 0,9 mm 3 mps 748 mmHg 96%
    09:00 +16°C° 1 mm 3 mps 748 mmHg 96%
    10:00 +17°C° 1 mm 3 mps 748 mmHg 95%
    11:00 +17°C° 1 mm 3 mps 748 mmHg 95%
    12:00 +19°C° 0,3 mm 3 mps 748 mmHg 93%
    13:00 +20°C° 0,3 mm 3 mps 748 mmHg 91%
    14:00 +21°C° 0,3 mm 3 mps 748 mmHg 88%
    15:00 +21°C° 0,8 mm 2 mps 748 mmHg 90%
    16:00 +23°C° 0,8 mm 2 mps 748 mmHg 91%
    17:00 +23°C° 0,8 mm 2 mps 748 mmHg 93%
    18:00 +21°C° 1,1 mm 2 mps 748 mmHg 93%
    19:00 +21°C° 1,1 mm 2 mps 748 mmHg 94%
    20:00 +20°C° 1,1 mm 2 mps 748 mmHg 95%
    21:00 +20°C° 0,8 mm 2 mps 748 mmHg 95%
    22:00 +19°C° 0,8 mm 2 mps 748 mmHg 96%
    23:00 +19°C° 0,8 mm 3 mps 748 mmHg 96%

    25 Julio, Miércoles

    Tiempo Temperatura Precipitaciones Viento Presión Humedad
    00:00 +19°C° 0 mm 3 mps 749 mmHg 97%
    01:00 +19°C° 0 mm 3 mps 749 mmHg 97%
    02:00 +19°C° 0 mm 2 mps 749 mmHg 97%
    03:00 +19°C° 0,1 mm 3 mps 749 mmHg 97%
    04:00 +19°C° 0,1 mm 3 mps 750 mmHg 97%
    05:00 +19°C° 0,1 mm 3 mps 750 mmHg 97%
    06:00 +20°C° 0,1 mm 3 mps 750 mmHg 95%
    07:00 +21°C° 0,1 mm 3 mps 751 mmHg 93%
    08:00 +21°C° 0,1 mm 3 mps 751 mmHg 91%
    09:00 +24°C° 0 mm 3 mps 751 mmHg 82%
    10:00 +25°C° 0 mm 3 mps 752 mmHg 74%
    11:00 +27°C° 0 mm 3 mps 752 mmHg 65%
    12:00 +27°C° 0 mm 3 mps 752 mmHg 63%
    13:00 +27°C° 0 mm 3 mps 752 mmHg 61%
    14:00 +28°C° 0 mm 3 mps 752 mmHg 59%
    15:00 +28°C° 0 mm 3 mps 752 mmHg 62%
    16:00 +27°C° 0 mm 3 mps 752 mmHg 64%
    17:00 +27°C° 0 mm 3 mps 751 mmHg 66%
    18:00 +26°C° 0 mm 2 mps 752 mmHg 71%
    19:00 +24°C° 0 mm 2 mps 752 mmHg 76%
    20:00 +21°C° 0 mm 2 mps 752 mmHg 81%
    21:00 +21°C° 0 mm 2 mps 752 mmHg 84%
    22:00 +20°C° 0 mm 2 mps 752 mmHg 86%
    23:00 +19°C° 0 mm 2 mps 753 mmHg 88%

    26 Julio, Jueves

    Tiempo Temperatura Precipitaciones Viento Presión Humedad
    00:00 +18°C° 0 mm 2 mps 753 mmHg 89%
    01:00 +18°C° 0 mm 2 mps 753 mmHg 91%
    02:00 +17°C° 0 mm 2 mps 753 mmHg 93%
    03:00 +18°C° 0 mm 2 mps 753 mmHg 92%
    04:00 +18°C° 0 mm 2 mps 754 mmHg 90%
    05:00 +18°C° 0 mm 2 mps 754 mmHg 89%
    06:00 +20°C° 0 mm 2 mps 754 mmHg 83%
    07:00 +23°C° 0 mm 2 mps 754 mmHg 77%
    08:00 +25°C° 0 mm 3 mps 754 mmHg 72%
    09:00 +26°C° 0 mm 3 mps 754 mmHg 65%
    10:00 +28°C° 0 mm 3 mps 754 mmHg 58%
    11:00 +29°C° 0 mm 4 mps 754 mmHg 52%
    12:00 +29°C° 0 mm 4 mps 754 mmHg 51%
    13:00 +30°C° 0 mm 4 mps 754 mmHg 49%
    14:00 +30°C° 0 mm 4 mps 754 mmHg 48%
    15:00 +30°C° 0 mm 3 mps 754 mmHg 53%
    16:00 +29°C° 0 mm 3 mps 754 mmHg 57%
    17:00 +29°C° 0 mm 2 mps 754 mmHg 62%
    18:00 +27°C° 0 mm 2 mps 754 mmHg 68%
    19:00 +25°C° 0 mm 2 mps 754 mmHg 74%
    20:00 +23°C° 0 mm 2 mps 754 mmHg 81%
    21:00 +21°C° 0 mm 2 mps 755 mmHg 83%
    22:00 +21°C° 0 mm 2 mps 755 mmHg 85%
    23:00 +20°C° 0 mm 2 mps 755 mmHg 87%
    Mostrar más